sat.trackr.live / text

‹ back to catalog

STARLINK-3509

NORAD 51737 · 2022-016Z

PAYLOAD ACTIVE UNKNOWN

§ Identity

Operator
Country
US
Launch date
2022-02-21
Launch site
AFETR
Launch vehicle
Mass (kg)
RCS (m²)

Purposes: comms

External: N2YO · Heavens-Above · Gunter

§ Orbital elements

Epoch: 2026-09-20T04:20:24.952704Z

Period
93.64 min
Inclination
53.1563°
Eccentricity
0.0002791
Mean motion
15.37792713 rev/d
Perigee alt
450.7 km
Apogee alt
454.5 km
Semi-major
6,830.8 km
B*
1.9308e-4
RAAN
151.7799°
Arg perigee
97.5228°
Mean anomaly
262.6093°
Rev number
25,311

§ Raw data

STARLINK-35091 51737U 22016Z   26263.18084436  .00006890  00000+0  19308-3 0  99932 51737  53.1563 151.7799 0002791  97.5228 262.6093 15.37792713253114

JSON: /api/v1/satellites/51737 · /tle

For live sub-satellite position, see the globe view (requires WebGL).

§ Visibility from observer

Set your observer location to see the next 7 days of passes ≥ 10°. The values pass through the URL so the page stays shareable.

No JS? Fill the form by hand. The geolocation button needs JavaScript.